Year,Month,Day,Hour,Minute,Value (Times are PST for windgust in km/hr)
2014,10,21,00,00,9.60
2014,10,21,00,01,11.30
2014,10,21,00,02,11.30
2014,10,21,00,03,12.90
2014,10,21,00,04,9.60
2014,10,21,00,05,11.30
2014,10,21,00,06,9.60
2014,10,21,00,07,16.10
2014,10,21,00,08,8.10
2014,10,21,00,09,14.50
2014,10,21,00,10,14.50
2014,10,21,00,11,9.60
2014,10,21,00,12,11.30
2014,10,21,00,13,14.50
2014,10,21,00,14,9.60
2014,10,21,00,15,11.30
2014,10,21,00,16,11.30
2014,10,21,00,17,6.40
2014,10,21,00,18,1.60
2014,10,21,00,19,4.80
2014,10,21,00,20,6.40
2014,10,21,00,21,6.40
2014,10,21,00,22,3.20
2014,10,21,00,23,4.80
2014,10,21,00,24,3.20
2014,10,21,00,25,4.80
2014,10,21,00,26,6.40
2014,10,21,00,27,6.40
2014,10,21,00,28,6.40
2014,10,21,00,29,4.80
2014,10,21,00,30,4.80
2014,10,21,00,31,4.80
2014,10,21,00,32,4.80
2014,10,21,00,33,4.80
2014,10,21,00,34,4.80
2014,10,21,00,35,4.80
2014,10,21,00,36,4.80
2014,10,21,00,37,4.80
2014,10,21,00,38,3.20
2014,10,21,00,39,3.20
2014,10,21,00,40,3.20
2014,10,21,00,41,3.20
2014,10,21,00,42,3.20
2014,10,21,00,43,3.20
2014,10,21,00,44,3.20
2014,10,21,00,45,3.20
2014,10,21,00,46,1.60
2014,10,21,00,47,3.20
2014,10,21,00,48,3.20
2014,10,21,00,49,1.60
2014,10,21,00,50,3.20
2014,10,21,00,51,3.20
2014,10,21,00,52,1.60
2014,10,21,00,53,1.60
2014,10,21,00,54,1.60
2014,10,21,00,55,1.60
2014,10,21,00,56,1.60
2014,10,21,00,57,3.20
2014,10,21,00,58,3.20
2014,10,21,00,59,3.20
2014,10,21,01,00,3.20
2014,10,21,01,01,3.20
2014,10,21,01,02,1.60
2014,10,21,01,03,3.20
2014,10,21,01,04,3.20
2014,10,21,01,05,3.20
2014,10,21,01,06,4.80
2014,10,21,01,07,4.80
2014,10,21,01,08,3.20
2014,10,21,01,09,4.80
2014,10,21,01,10,4.80
2014,10,21,01,11,4.80
2014,10,21,01,12,4.80
2014,10,21,01,13,6.40
2014,10,21,01,14,3.20
2014,10,21,01,15,4.80
2014,10,21,01,16,6.40
2014,10,21,01,17,6.40
2014,10,21,01,18,6.40
2014,10,21,01,19,6.40
2014,10,21,01,20,4.80
2014,10,21,01,21,6.40
2014,10,21,01,22,9.60
2014,10,21,01,23,11.30
2014,10,21,01,24,4.80
2014,10,21,01,25,6.40
2014,10,21,01,26,6.40
2014,10,21,01,27,9.60
2014,10,21,01,28,9.60
2014,10,21,01,29,4.80
2014,10,21,01,30,9.60
2014,10,21,01,31,9.60
2014,10,21,01,32,9.60
2014,10,21,01,33,8.10
2014,10,21,01,34,8.10
2014,10,21,01,35,9.60
2014,10,21,01,36,8.10
2014,10,21,01,37,8.10
2014,10,21,01,38,8.10
2014,10,21,01,39,6.40
2014,10,21,01,40,8.10
2014,10,21,01,41,6.40
2014,10,21,01,42,6.40
2014,10,21,01,43,8.10
2014,10,21,01,44,4.80
2014,10,21,01,45,8.10
2014,10,21,01,46,6.40
2014,10,21,01,47,14.50
2014,10,21,01,48,9.60
2014,10,21,01,49,8.10
2014,10,21,01,50,6.40
2014,10,21,01,51,6.40
2014,10,21,01,52,4.80
2014,10,21,01,53,8.10
2014,10,21,01,54,4.80
2014,10,21,01,55,4.80
2014,10,21,01,56,3.20
2014,10,21,01,57,4.80
2014,10,21,01,58,4.80
2014,10,21,01,59,3.20
2014,10,21,02,00,4.80
2014,10,21,02,01,3.20
2014,10,21,02,02,4.80
2014,10,21,02,03,4.80
2014,10,21,02,04,1.60
2014,10,21,02,05,3.20
2014,10,21,02,06,3.20
2014,10,21,02,07,3.20
2014,10,21,02,08,4.80
2014,10,21,02,09,4.80
2014,10,21,02,10,3.20
2014,10,21,02,11,3.20
2014,10,21,02,12,4.80
2014,10,21,02,13,4.80
2014,10,21,02,14,4.80
2014,10,21,02,15,4.80
2014,10,21,02,16,4.80
2014,10,21,02,17,4.80
2014,10,21,02,18,3.20
2014,10,21,02,19,4.80
2014,10,21,02,20,4.80
2014,10,21,02,21,4.80
2014,10,21,02,22,4.80
2014,10,21,02,23,4.80
2014,10,21,02,24,4.80
2014,10,21,02,25,6.40
2014,10,21,02,26,8.10
2014,10,21,02,27,6.40
2014,10,21,02,28,6.40
2014,10,21,02,29,11.30
2014,10,21,02,30,11.30
2014,10,21,02,31,12.90
2014,10,21,02,32,14.50
2014,10,21,02,33,8.10
2014,10,21,02,34,9.60
2014,10,21,02,35,9.60
2014,10,21,02,36,11.30
2014,10,21,02,37,8.10
2014,10,21,02,38,8.10
2014,10,21,02,39,9.60
2014,10,21,02,40,11.30
2014,10,21,02,41,8.10
2014,10,21,02,42,9.60
2014,10,21,02,43,8.10
2014,10,21,02,44,8.10
2014,10,21,02,45,6.40
2014,10,21,02,46,6.40
2014,10,21,02,47,8.10
2014,10,21,02,48,4.80
2014,10,21,02,49,6.40
2014,10,21,02,50,8.10
2014,10,21,02,51,11.30
2014,10,21,02,52,8.10
2014,10,21,02,53,9.60
2014,10,21,02,54,6.40
2014,10,21,02,55,6.40
2014,10,21,02,56,4.80
2014,10,21,02,57,9.60
2014,10,21,02,58,9.60
2014,10,21,02,59,14.50
2014,10,21,03,00,14.50
2014,10,21,03,01,11.30
2014,10,21,03,02,11.30
2014,10,21,03,03,9.60
2014,10,21,03,04,9.60
2014,10,21,03,05,8.10
2014,10,21,03,06,8.10
2014,10,21,03,07,9.60
2014,10,21,03,08,14.50
2014,10,21,03,09,12.90
2014,10,21,03,10,9.60
2014,10,21,03,11,11.30
2014,10,21,03,12,11.30
2014,10,21,03,13,8.10
2014,10,21,03,14,11.30
2014,10,21,03,15,8.10
2014,10,21,03,16,6.40
2014,10,21,03,17,8.10
2014,10,21,03,18,6.40
2014,10,21,03,19,6.40
2014,10,21,03,20,9.60
2014,10,21,03,21,6.40
2014,10,21,03,22,8.10
2014,10,21,03,23,8.10
2014,10,21,03,24,11.30
2014,10,21,03,25,9.60
2014,10,21,03,26,9.60
2014,10,21,03,27,14.50
2014,10,21,03,28,12.90
2014,10,21,03,29,8.10
2014,10,21,03,30,12.90
2014,10,21,03,31,12.90
2014,10,21,03,32,9.60
2014,10,21,03,33,9.60
2014,10,21,03,34,4.80
2014,10,21,03,35,6.40
2014,10,21,03,36,4.80
2014,10,21,03,37,4.80
2014,10,21,03,38,3.20
2014,10,21,03,39,4.80
2014,10,21,03,40,4.80
2014,10,21,03,41,8.10
2014,10,21,03,42,9.60
2014,10,21,03,43,4.80
2014,10,21,03,44,6.40
2014,10,21,03,45,11.30
2014,10,21,03,46,8.10
2014,10,21,03,47,8.10
2014,10,21,03,48,9.60
2014,10,21,03,49,6.40
2014,10,21,03,50,9.60
2014,10,21,03,51,8.10
2014,10,21,03,52,11.30
2014,10,21,03,53,6.40
2014,10,21,03,54,8.10
2014,10,21,03,55,6.40
2014,10,21,03,56,6.40
2014,10,21,03,57,8.10
2014,10,21,03,58,11.30
2014,10,21,03,59,6.40
2014,10,21,04,00,8.10
2014,10,21,04,01,4.80
2014,10,21,04,02,9.60
2014,10,21,04,03,9.60
2014,10,21,04,04,9.60
2014,10,21,04,05,9.60
2014,10,21,04,06,8.10
2014,10,21,04,07,6.40
2014,10,21,04,08,8.10
2014,10,21,04,09,9.60
2014,10,21,04,10,9.60
2014,10,21,04,11,8.10
2014,10,21,04,12,6.40
2014,10,21,04,13,8.10
2014,10,21,04,14,6.40
2014,10,21,04,15,11.30
2014,10,21,04,16,9.60
2014,10,21,04,17,6.40
2014,10,21,04,18,9.60
2014,10,21,04,19,6.40
2014,10,21,04,20,4.80
2014,10,21,04,21,11.30
2014,10,21,04,22,11.30
2014,10,21,04,23,8.10
2014,10,21,04,24,6.40
2014,10,21,04,25,3.20
2014,10,21,04,26,3.20
2014,10,21,04,27,6.40
2014,10,21,04,28,6.40
2014,10,21,04,29,4.80
2014,10,21,04,30,6.40
2014,10,21,04,31,4.80
2014,10,21,04,32,3.20
2014,10,21,04,33,3.20
2014,10,21,04,34,3.20
2014,10,21,04,35,9.60
2014,10,21,04,36,4.80
2014,10,21,04,37,4.80
2014,10,21,04,38,6.40
2014,10,21,04,39,8.10
2014,10,21,04,40,9.60
2014,10,21,04,41,6.40
2014,10,21,04,42,6.40
2014,10,21,04,43,11.30
2014,10,21,04,44,4.80
2014,10,21,04,45,6.40
2014,10,21,04,46,6.40
2014,10,21,04,47,6.40
2014,10,21,04,48,6.40
2014,10,21,04,49,4.80
2014,10,21,04,50,8.10
2014,10,21,04,51,9.60
2014,10,21,04,52,6.40
2014,10,21,04,53,6.40
2014,10,21,04,54,6.40
2014,10,21,04,55,4.80
2014,10,21,04,56,4.80
2014,10,21,04,57,4.80
2014,10,21,04,58,4.80
2014,10,21,04,59,6.40
2014,10,21,05,00,3.20
2014,10,21,05,01,6.40
2014,10,21,05,02,3.20
2014,10,21,05,03,8.10
2014,10,21,05,04,8.10
2014,10,21,05,05,6.40
2014,10,21,05,06,9.60
2014,10,21,05,07,6.40
2014,10,21,05,08,6.40
2014,10,21,05,09,8.10
2014,10,21,05,10,4.80
2014,10,21,05,11,8.10
2014,10,21,05,12,8.10
2014,10,21,05,13,9.60
2014,10,21,05,14,14.50
2014,10,21,05,15,12.90
2014,10,21,05,16,11.30
2014,10,21,05,17,12.90
2014,10,21,05,18,9.60
2014,10,21,05,19,9.60
2014,10,21,05,20,9.60
2014,10,21,05,21,9.60
2014,10,21,05,22,6.40
2014,10,21,05,23,6.40
2014,10,21,05,24,8.10
2014,10,21,05,25,6.40
2014,10,21,05,26,12.90
2014,10,21,05,27,4.80
2014,10,21,05,28,4.80
2014,10,21,05,29,6.40
2014,10,21,05,30,9.60
2014,10,21,05,31,8.10
2014,10,21,05,32,11.30
2014,10,21,05,33,12.90
2014,10,21,05,34,9.60
2014,10,21,05,35,9.60
2014,10,21,05,36,6.40
2014,10,21,05,37,12.90
2014,10,21,05,38,12.90
2014,10,21,05,39,8.10
2014,10,21,05,40,8.10
2014,10,21,05,41,6.40
2014,10,21,05,42,4.80
2014,10,21,05,43,6.40
2014,10,21,05,44,6.40
2014,10,21,05,45,4.80
2014,10,21,05,46,8.10
2014,10,21,05,47,4.80
2014,10,21,05,48,9.60
2014,10,21,05,49,4.80
2014,10,21,05,50,8.10
2014,10,21,05,51,8.10
2014,10,21,05,52,4.80
2014,10,21,05,53,6.40
2014,10,21,05,54,9.60
2014,10,21,05,55,6.40
2014,10,21,05,56,9.60
2014,10,21,05,57,11.30
2014,10,21,05,58,6.40
2014,10,21,05,59,11.30
2014,10,21,06,00,12.90
2014,10,21,06,01,9.60
2014,10,21,06,02,12.90
2014,10,21,06,03,11.30
2014,10,21,06,04,16.10
2014,10,21,06,05,14.50
2014,10,21,06,06,9.60
2014,10,21,06,07,6.40
2014,10,21,06,08,8.10
2014,10,21,06,09,11.30
2014,10,21,06,10,14.50
2014,10,21,06,11,12.90
2014,10,21,06,12,9.60
2014,10,21,06,13,8.10
2014,10,21,06,14,9.60
2014,10,21,06,15,9.60
2014,10,21,06,16,9.60
2014,10,21,06,17,4.80
2014,10,21,06,18,11.30
2014,10,21,06,19,11.30
2014,10,21,06,20,8.10
2014,10,21,06,21,8.10
2014,10,21,06,22,8.10
2014,10,21,06,23,12.90
2014,10,21,06,24,9.60
2014,10,21,06,25,8.10
2014,10,21,06,26,9.60
2014,10,21,06,27,12.90
2014,10,21,06,28,12.90
2014,10,21,06,29,11.30
2014,10,21,06,30,12.90
2014,10,21,06,31,14.50
2014,10,21,06,32,14.50
2014,10,21,06,33,12.90
2014,10,21,06,34,16.10
2014,10,21,06,35,6.40
2014,10,21,06,36,6.40
2014,10,21,06,37,12.90
2014,10,21,06,38,12.90
2014,10,21,06,39,8.10
2014,10,21,06,40,6.40
2014,10,21,06,41,6.40
2014,10,21,06,42,8.10
2014,10,21,06,43,11.30
2014,10,21,06,44,6.40
2014,10,21,06,45,14.50
2014,10,21,06,46,11.30
2014,10,21,06,47,16.10
2014,10,21,06,48,14.50
2014,10,21,06,49,16.10
2014,10,21,06,50,12.90
2014,10,21,06,51,11.30
2014,10,21,06,52,9.60
2014,10,21,06,53,11.30
2014,10,21,06,54,14.50
2014,10,21,06,55,16.10
2014,10,21,06,56,9.60
2014,10,21,06,57,11.30
2014,10,21,06,58,11.30
2014,10,21,06,59,12.90
2014,10,21,07,00,12.90
2014,10,21,07,01,9.60
2014,10,21,07,02,16.10
2014,10,21,07,03,12.90
2014,10,21,07,04,16.10
2014,10,21,07,05,11.30
2014,10,21,07,06,9.60
2014,10,21,07,07,11.30
2014,10,21,07,08,11.30
2014,10,21,07,09,9.60
2014,10,21,07,10,12.90
2014,10,21,07,11,8.10
2014,10,21,07,12,17.70
2014,10,21,07,13,9.60
2014,10,21,07,14,8.10
2014,10,21,07,15,11.30
2014,10,21,07,16,11.30
2014,10,21,07,17,8.10
2014,10,21,07,18,8.10
2014,10,21,07,19,8.10
2014,10,21,07,20,9.60
2014,10,21,07,21,9.60
2014,10,21,07,22,8.10
2014,10,21,07,23,6.40
2014,10,21,07,24,14.50
2014,10,21,07,25,9.60
2014,10,21,07,26,4.80
2014,10,21,07,27,6.40
2014,10,21,07,28,8.10
2014,10,21,07,29,6.40
2014,10,21,07,30,6.40
2014,10,21,07,31,8.10
2014,10,21,07,32,11.30
2014,10,21,07,33,9.60
2014,10,21,07,34,12.90
2014,10,21,07,35,8.10
2014,10,21,07,36,8.10
2014,10,21,07,37,9.60
2014,10,21,07,38,9.60
2014,10,21,07,39,9.60
2014,10,21,07,40,9.60
2014,10,21,07,41,6.40
2014,10,21,07,42,9.60
2014,10,21,07,43,8.10
2014,10,21,07,44,3.20
2014,10,21,07,45,4.80
2014,10,21,07,46,6.40
2014,10,21,07,47,6.40
2014,10,21,07,48,8.10
2014,10,21,07,49,9.60
2014,10,21,07,50,11.30
2014,10,21,07,51,11.30
2014,10,21,07,52,9.60
2014,10,21,07,53,11.30
2014,10,21,07,54,12.90
2014,10,21,07,55,9.60
2014,10,21,07,56,9.60
2014,10,21,07,57,9.60
2014,10,21,07,58,12.90
2014,10,21,07,59,16.10
2014,10,21,08,00,9.60
2014,10,21,08,01,11.30
2014,10,21,08,02,11.30
2014,10,21,08,03,12.90
2014,10,21,08,04,14.50
2014,10,21,08,05,12.90
2014,10,21,08,06,14.50
2014,10,21,08,07,9.60
2014,10,21,08,08,16.10
2014,10,21,08,09,8.10
2014,10,21,08,10,14.50
2014,10,21,08,11,19.30
2014,10,21,08,12,14.50
2014,10,21,08,13,20.90
2014,10,21,08,14,16.10
2014,10,21,08,15,14.50
2014,10,21,08,16,19.30
2014,10,21,08,17,19.30
2014,10,21,08,18,12.90
2014,10,21,08,19,9.60
2014,10,21,08,20,11.30
2014,10,21,08,21,12.90
2014,10,21,08,22,14.50
2014,10,21,08,23,16.10
2014,10,21,08,24,17.70
2014,10,21,08,25,20.90
2014,10,21,08,26,20.90
2014,10,21,08,27,12.90
2014,10,21,08,28,12.90
2014,10,21,08,29,17.70
2014,10,21,08,30,17.70
2014,10,21,08,31,22.50
2014,10,21,08,32,17.70
2014,10,21,08,33,17.70
2014,10,21,08,34,17.70
2014,10,21,08,35,17.70
2014,10,21,08,36,16.10
2014,10,21,08,37,12.90
2014,10,21,08,38,17.70
2014,10,21,08,39,20.90
2014,10,21,08,40,12.90
2014,10,21,08,41,19.30
2014,10,21,08,42,14.50
2014,10,21,08,43,19.30
2014,10,21,08,44,17.70
2014,10,21,08,45,19.30
2014,10,21,08,46,17.70
2014,10,21,08,47,17.70
2014,10,21,08,48,17.70
2014,10,21,08,49,20.90
2014,10,21,08,50,16.10
2014,10,21,08,51,14.50
2014,10,21,08,52,16.10
2014,10,21,08,53,12.90
2014,10,21,08,54,19.30
2014,10,21,08,55,16.10
2014,10,21,08,56,12.90
2014,10,21,08,57,14.50
2014,10,21,08,58,11.30
2014,10,21,08,59,12.90
2014,10,21,09,00,12.90
2014,10,21,09,01,9.60
2014,10,21,09,02,14.50
2014,10,21,09,03,9.60
2014,10,21,09,04,20.90
2014,10,21,09,05,12.90
2014,10,21,09,06,19.30
2014,10,21,09,07,19.30
2014,10,21,09,08,16.10
2014,10,21,09,09,22.50
2014,10,21,09,10,17.70
2014,10,21,09,11,17.70
2014,10,21,09,12,19.30
2014,10,21,09,13,9.60
2014,10,21,09,14,12.90
2014,10,21,09,15,17.70
2014,10,21,09,16,17.70
2014,10,21,09,17,16.10
2014,10,21,09,18,16.10
2014,10,21,09,19,11.30
2014,10,21,09,20,20.90
2014,10,21,09,21,20.90
2014,10,21,09,22,11.30
2014,10,21,09,23,17.70
2014,10,21,09,24,19.30
2014,10,21,09,25,22.50
2014,10,21,09,26,16.10
2014,10,21,09,27,19.30
2014,10,21,09,28,19.30
2014,10,21,09,29,17.70
2014,10,21,09,30,11.30
2014,10,21,09,31,17.70
2014,10,21,09,32,16.10
2014,10,21,09,33,17.70
2014,10,21,09,34,17.70
2014,10,21,09,35,14.50
2014,10,21,09,36,25.70
2014,10,21,09,37,19.30
2014,10,21,09,38,22.50
2014,10,21,09,39,20.90
2014,10,21,09,40,24.20
2014,10,21,09,41,19.30
2014,10,21,09,42,25.70
2014,10,21,09,43,19.30
2014,10,21,09,44,22.50
2014,10,21,09,45,20.90
2014,10,21,09,46,17.70
2014,10,21,09,47,19.30
2014,10,21,09,48,17.70
2014,10,21,09,49,19.30
2014,10,21,09,50,19.30
2014,10,21,09,51,22.50
2014,10,21,09,52,33.80
2014,10,21,09,53,24.20
2014,10,21,09,54,17.70
2014,10,21,09,55,19.30
2014,10,21,09,56,22.50
2014,10,21,09,57,25.70
2014,10,21,09,58,22.50
2014,10,21,09,59,27.40
2014,10,21,10,00,20.90
2014,10,21,10,01,25.70
2014,10,21,10,02,25.70
2014,10,21,10,03,20.90
2014,10,21,10,04,20.90
2014,10,21,10,05,20.90
2014,10,21,10,06,16.10
2014,10,21,10,07,17.70
2014,10,21,10,08,14.50
2014,10,21,10,09,14.50
2014,10,21,10,10,22.50
2014,10,21,10,11,11.30
2014,10,21,10,12,17.70
2014,10,21,10,13,17.70
2014,10,21,10,14,19.30
2014,10,21,10,15,20.90
2014,10,21,10,16,16.10
2014,10,21,10,17,20.90
2014,10,21,10,18,12.90
2014,10,21,10,19,20.90
2014,10,21,10,20,20.90
2014,10,21,10,21,16.10
2014,10,21,10,22,25.70
2014,10,21,10,23,9.60
2014,10,21,10,24,12.90
2014,10,21,10,25,20.90
2014,10,21,10,26,17.70
2014,10,21,10,27,16.10
2014,10,21,10,28,20.90
2014,10,21,10,29,27.40
2014,10,21,10,30,16.10
2014,10,21,10,31,16.10
2014,10,21,10,32,17.70
2014,10,21,10,33,25.70
2014,10,21,10,34,17.70
2014,10,21,10,35,17.70
2014,10,21,10,36,19.30
2014,10,21,10,37,17.70
2014,10,21,10,38,17.70
2014,10,21,10,39,20.90
2014,10,21,10,40,17.70
2014,10,21,10,41,22.50
2014,10,21,10,42,20.90
2014,10,21,10,43,24.20
2014,10,21,10,44,19.30
2014,10,21,10,45,20.90
2014,10,21,10,46,29.00
2014,10,21,10,47,25.70
2014,10,21,10,48,22.50
2014,10,21,10,49,17.70
2014,10,21,10,50,14.50
2014,10,21,10,51,12.90
2014,10,21,10,52,19.30
2014,10,21,10,53,17.70
2014,10,21,10,54,24.20
2014,10,21,10,55,16.10
2014,10,21,10,56,22.50
2014,10,21,10,57,22.50
2014,10,21,10,58,22.50
2014,10,21,10,59,27.40
2014,10,21,11,00,20.90
2014,10,21,11,01,24.20
2014,10,21,11,02,20.90
2014,10,21,11,03,22.50
2014,10,21,11,04,22.50
2014,10,21,11,05,27.40
2014,10,21,11,06,17.70
2014,10,21,11,07,30.60
2014,10,21,11,08,17.70
2014,10,21,11,09,24.20
2014,10,21,11,10,24.20
2014,10,21,11,11,30.60
2014,10,21,11,12,30.60
2014,10,21,11,13,24.20
2014,10,21,11,14,19.30
2014,10,21,11,15,27.40
2014,10,21,11,16,25.70
2014,10,21,11,17,29.00
2014,10,21,11,18,24.20
2014,10,21,11,19,22.50
2014,10,21,11,20,24.20
2014,10,21,11,21,33.80
2014,10,21,11,22,35.40
2014,10,21,11,23,27.40
2014,10,21,11,24,22.50
2014,10,21,11,25,37.00
2014,10,21,11,26,25.70
2014,10,21,11,27,17.70
2014,10,21,11,28,24.20
2014,10,21,11,29,30.60
2014,10,21,11,30,20.90
2014,10,21,11,31,29.00
2014,10,21,11,32,27.40
2014,10,21,11,33,24.20
2014,10,21,11,34,32.20
2014,10,21,11,35,24.20
2014,10,21,11,36,24.20
2014,10,21,11,37,33.80
2014,10,21,11,38,24.20
2014,10,21,11,39,25.70
2014,10,21,11,40,25.70
2014,10,21,11,41,19.30
2014,10,21,11,42,16.10
2014,10,21,11,43,24.20
2014,10,21,11,44,25.70
2014,10,21,11,45,27.40
2014,10,21,11,46,25.70
2014,10,21,11,47,37.00
2014,10,21,11,48,20.90
2014,10,21,11,49,19.30
2014,10,21,11,50,19.30
2014,10,21,11,51,29.00
2014,10,21,11,52,25.70
2014,10,21,11,53,25.70
2014,10,21,11,54,19.30
2014,10,21,11,55,30.60
2014,10,21,11,56,30.60
2014,10,21,11,57,22.50
2014,10,21,11,58,17.70
2014,10,21,11,59,27.40
2014,10,21,12,00,25.70
2014,10,21,12,01,19.30
2014,10,21,12,02,11.30
2014,10,21,12,03,22.50
2014,10,21,12,04,22.50
2014,10,21,12,05,16.10
2014,10,21,12,06,20.90
2014,10,21,12,07,17.70
2014,10,21,12,08,25.70
2014,10,21,12,09,11.30
2014,10,21,12,10,14.50
2014,10,21,12,11,16.10
2014,10,21,12,12,16.10
2014,10,21,12,13,29.00
2014,10,21,12,14,30.60
2014,10,21,12,15,29.00
2014,10,21,12,16,25.70
2014,10,21,12,17,25.70
2014,10,21,12,18,20.90
2014,10,21,12,19,27.40
2014,10,21,12,20,27.40
2014,10,21,12,21,38.60
2014,10,21,12,22,20.90
2014,10,21,12,23,24.20
2014,10,21,12,24,29.00
2014,10,21,12,25,30.60
2014,10,21,12,26,20.90
2014,10,21,12,27,35.40
2014,10,21,12,28,29.00
2014,10,21,12,29,24.20
2014,10,21,12,30,27.40
2014,10,21,12,31,25.70
2014,10,21,12,32,33.80
2014,10,21,12,33,17.70
2014,10,21,12,34,29.00
2014,10,21,12,35,25.70
2014,10,21,12,36,22.50
2014,10,21,12,37,27.40
2014,10,21,12,38,30.60
2014,10,21,12,39,24.20
2014,10,21,12,40,22.50
2014,10,21,12,41,33.80
2014,10,21,12,42,25.70
2014,10,21,12,43,22.50
2014,10,21,12,44,24.20
2014,10,21,12,45,20.90
2014,10,21,12,46,32.20
2014,10,21,12,47,35.40
2014,10,21,12,48,29.00
2014,10,21,12,49,35.40
2014,10,21,12,50,32.20
2014,10,21,12,51,24.20
2014,10,21,12,52,24.20
2014,10,21,12,53,22.50
2014,10,21,12,54,22.50
2014,10,21,12,55,30.60
2014,10,21,12,56,22.50
2014,10,21,12,57,27.40
2014,10,21,12,58,22.50
2014,10,21,12,59,20.90
2014,10,21,13,00,33.80
2014,10,21,13,01,33.80
2014,10,21,13,02,30.60
2014,10,21,13,03,29.00
2014,10,21,13,04,24.20
2014,10,21,13,05,27.40
2014,10,21,13,06,35.40
2014,10,21,13,07,25.70
2014,10,21,13,08,29.00
2014,10,21,13,09,24.20
2014,10,21,13,10,33.80
2014,10,21,13,11,33.80
2014,10,21,13,12,29.00
2014,10,21,13,13,33.80
2014,10,21,13,14,33.80
2014,10,21,13,15,32.20
2014,10,21,13,16,37.00
2014,10,21,13,17,41.80
2014,10,21,13,18,33.80
2014,10,21,13,19,27.40
2014,10,21,13,20,33.80
2014,10,21,13,21,25.70
2014,10,21,13,22,38.60
2014,10,21,13,23,27.40
2014,10,21,13,24,20.90
2014,10,21,13,25,27.40
2014,10,21,13,26,27.40
2014,10,21,13,27,20.90
2014,10,21,13,28,30.60
2014,10,21,13,29,27.40
2014,10,21,13,30,22.50
2014,10,21,13,31,22.50
2014,10,21,13,32,33.80
2014,10,21,13,33,30.60
2014,10,21,13,34,32.20
2014,10,21,13,35,27.40
2014,10,21,13,36,20.90
2014,10,21,13,37,24.20
2014,10,21,13,38,25.70
2014,10,21,13,39,27.40
2014,10,21,13,40,25.70
2014,10,21,13,41,33.80
2014,10,21,13,42,30.60
2014,10,21,13,43,20.90
2014,10,21,13,44,20.90
2014,10,21,13,45,32.20
2014,10,21,13,46,17.70
2014,10,21,13,47,27.40
2014,10,21,13,48,22.50
2014,10,21,13,49,32.20
2014,10,21,13,50,29.00
2014,10,21,13,51,27.40
2014,10,21,13,52,24.20
2014,10,21,13,53,30.60
2014,10,21,13,54,30.60
2014,10,21,13,55,20.90
2014,10,21,13,56,24.20
2014,10,21,13,57,16.10
2014,10,21,13,58,20.90
2014,10,21,13,59,17.70
2014,10,21,14,00,22.50
2014,10,21,14,01,20.90
2014,10,21,14,02,27.40
2014,10,21,14,03,16.10
2014,10,21,14,04,24.20
2014,10,21,14,05,20.90
2014,10,21,14,06,19.30
2014,10,21,14,07,19.30
2014,10,21,14,08,19.30
2014,10,21,14,09,32.20
2014,10,21,14,10,22.50
2014,10,21,14,11,16.10
2014,10,21,14,12,30.60
2014,10,21,14,13,19.30
2014,10,21,14,14,22.50
2014,10,21,14,15,16.10
2014,10,21,14,16,17.70
2014,10,21,14,17,14.50
2014,10,21,14,18,14.50
2014,10,21,14,19,14.50
2014,10,21,14,20,14.50
2014,10,21,14,21,19.30
2014,10,21,14,22,22.50
2014,10,21,14,23,22.50
2014,10,21,14,24,20.90
2014,10,21,14,25,17.70
2014,10,21,14,26,22.50
2014,10,21,14,27,22.50
2014,10,21,14,28,27.40
2014,10,21,14,29,24.20
2014,10,21,14,30,17.70
2014,10,21,14,31,22.50
2014,10,21,14,32,20.90
2014,10,21,14,33,24.20
2014,10,21,14,34,33.80
2014,10,21,14,35,19.30
2014,10,21,14,36,20.90
2014,10,21,14,37,24.20
2014,10,21,14,38,25.70
2014,10,21,14,39,20.90
2014,10,21,14,40,16.10
2014,10,21,14,41,14.50
2014,10,21,14,42,14.50
2014,10,21,14,43,27.40
2014,10,21,14,44,20.90
2014,10,21,14,45,19.30
2014,10,21,14,46,17.70
2014,10,21,14,47,9.60
2014,10,21,14,48,22.50
2014,10,21,14,49,24.20
2014,10,21,14,50,27.40
2014,10,21,14,51,17.70
2014,10,21,14,52,22.50
2014,10,21,14,53,17.70
2014,10,21,14,54,14.50
2014,10,21,14,55,20.90
2014,10,21,14,56,20.90
2014,10,21,14,57,19.30
2014,10,21,14,58,12.90
2014,10,21,14,59,16.10
2014,10,21,15,00,9.60
2014,10,21,15,01,17.70
2014,10,21,15,02,19.30
2014,10,21,15,03,11.30
2014,10,21,15,04,14.50
2014,10,21,15,05,19.30
2014,10,21,15,06,14.50
2014,10,21,15,07,11.30
2014,10,21,15,08,6.40
2014,10,21,15,09,8.10
2014,10,21,15,10,8.10
2014,10,21,15,11,8.10
2014,10,21,15,12,4.80
2014,10,21,15,13,16.10
2014,10,21,15,14,9.60
2014,10,21,15,15,11.30
2014,10,21,15,16,8.10
2014,10,21,15,17,6.40
2014,10,21,15,18,3.20
2014,10,21,15,19,1.60
2014,10,21,15,20,6.40
2014,10,21,15,21,3.20
2014,10,21,15,22,6.40
2014,10,21,15,23,3.20
2014,10,21,15,24,6.40
2014,10,21,15,25,6.40
2014,10,21,15,26,6.40
2014,10,21,15,27,6.40
2014,10,21,15,28,1.60
2014,10,21,15,29,3.20
2014,10,21,15,30,3.20
2014,10,21,15,31,1.60
2014,10,21,15,32,3.20
2014,10,21,15,33,3.20
2014,10,21,15,34,4.80
2014,10,21,15,35,6.40
2014,10,21,15,36,6.40
2014,10,21,15,37,4.80
2014,10,21,15,38,3.20
2014,10,21,15,39,4.80
2014,10,21,15,40,4.80
2014,10,21,15,41,4.80
2014,10,21,15,42,6.40
2014,10,21,15,43,6.40
2014,10,21,15,44,3.20
2014,10,21,15,45,3.20
2014,10,21,15,46,6.40
2014,10,21,15,47,3.20
2014,10,21,15,48,3.20
2014,10,21,15,49,8.10
2014,10,21,15,50,8.10
2014,10,21,15,51,6.40
2014,10,21,15,52,4.80
2014,10,21,15,53,4.80
2014,10,21,15,54,4.80
2014,10,21,15,55,6.40
2014,10,21,15,56,9.60
2014,10,21,15,57,12.90
2014,10,21,15,58,14.50
2014,10,21,15,59,12.90
2014,10,21,16,00,11.30
2014,10,21,16,01,6.40
2014,10,21,16,02,6.40
2014,10,21,16,03,11.30
2014,10,21,16,04,9.60
2014,10,21,16,05,9.60
2014,10,21,16,06,8.10
2014,10,21,16,07,11.30
2014,10,21,16,08,9.60
2014,10,21,16,09,8.10
2014,10,21,16,10,12.90
2014,10,21,16,11,9.60
2014,10,21,16,12,14.50
2014,10,21,16,13,11.30
2014,10,21,16,14,11.30
2014,10,21,16,15,11.30
2014,10,21,16,16,6.40
2014,10,21,16,17,6.40
2014,10,21,16,18,8.10
2014,10,21,16,19,9.60
2014,10,21,16,20,14.50
2014,10,21,16,21,16.10
2014,10,21,16,22,12.90
2014,10,21,16,23,12.90
2014,10,21,16,24,12.90
2014,10,21,16,25,12.90
2014,10,21,16,26,14.50
2014,10,21,16,27,11.30
2014,10,21,16,28,11.30
2014,10,21,16,29,14.50
2014,10,21,16,30,11.30
2014,10,21,16,31,12.90
2014,10,21,16,32,8.10
2014,10,21,16,33,4.80
2014,10,21,16,34,11.30
2014,10,21,16,35,11.30
2014,10,21,16,36,11.30
2014,10,21,16,37,12.90
2014,10,21,16,38,11.30
2014,10,21,16,39,12.90
2014,10,21,16,40,11.30
2014,10,21,16,41,9.60
2014,10,21,16,42,11.30
2014,10,21,16,43,14.50
2014,10,21,16,44,14.50
2014,10,21,16,45,11.30
2014,10,21,16,46,11.30
2014,10,21,16,47,9.60
2014,10,21,16,48,14.50
2014,10,21,16,49,12.90
2014,10,21,16,50,11.30
2014,10,21,16,51,9.60
2014,10,21,16,52,9.60
2014,10,21,16,53,8.10
2014,10,21,16,54,9.60
2014,10,21,16,55,9.60
2014,10,21,16,56,14.50
2014,10,21,16,57,9.60
2014,10,21,16,58,11.30
2014,10,21,16,59,11.30
2014,10,21,17,00,12.90
2014,10,21,17,01,11.30
2014,10,21,17,02,12.90
2014,10,21,17,03,14.50
2014,10,21,17,04,12.90
2014,10,21,17,05,14.50
2014,10,21,17,06,16.10
2014,10,21,17,07,16.10
2014,10,21,17,08,12.90
2014,10,21,17,09,14.50
2014,10,21,17,10,12.90
2014,10,21,17,11,14.50
2014,10,21,17,12,14.50
2014,10,21,17,13,14.50
2014,10,21,17,14,12.90
2014,10,21,17,15,14.50
2014,10,21,17,16,12.90
2014,10,21,17,17,14.50
2014,10,21,17,18,14.50
2014,10,21,17,19,14.50
2014,10,21,17,20,14.50
2014,10,21,17,21,12.90
2014,10,21,17,22,16.10
2014,10,21,17,23,12.90
2014,10,21,17,24,19.30
2014,10,21,17,25,19.30
2014,10,21,17,26,16.10
2014,10,21,17,27,12.90
2014,10,21,17,28,16.10
2014,10,21,17,29,14.50
2014,10,21,17,30,12.90
2014,10,21,17,31,12.90
2014,10,21,17,32,12.90
2014,10,21,17,33,9.60
2014,10,21,17,34,16.10
2014,10,21,17,35,14.50
2014,10,21,17,36,14.50
2014,10,21,17,37,20.90
2014,10,21,17,38,16.10
2014,10,21,17,39,14.50